DW9408 Weather Reports


Display with metric or nautical units.
time (UTC)temp
F
wind
direction
speed
MPH
gust
MPH
rain 1hr
in
rain 24hr
in
rain mn
in
humidity
%
barometer
mb
20260510004527 67 206 0.0 0.0 0.00 0.00 0.00 85 1010.9
20260510004021 67 206 0.0 0.0 0.00 0.00 0.00 84 1010.8
20260510003516 68 206 0.0 0.0 0.00 0.00 0.00 84 1010.8
20260510003011 68 206 0.0 0.0 0.00 0.00 0.00 82 1010.8
20260510002504 68 206 0.0 0.0 0.00 0.00 0.00 82 1010.7
20260510001957 69 207 0.0 0.0 0.00 0.00 0.00 82 1010.5
20260510001451 69 206 0.0 0.0 0.00 0.00 0.00 82 1010.5
20260510000945 69 206 0.0 0.0 0.00 0.00 0.00 81 1010.4
20260510000441 69 206 0.0 5.0 0.00 0.00 0.00 81 1010.3
20260509235934 69 206 1.0 5.0 0.00 0.00 0.00 80 1010.3
20260509235428 70 205 1.0 4.0 0.00 0.00 0.00 80 1010.2
20260509234921 70 219 1.0 5.0 0.00 0.00 0.00 79 1010.1
20260509234415 70 189 1.0 6.0 0.00 0.00 0.00 79 1010.0
20260509234140 70 221 1.0 6.0 0.00 0.00 0.00 79 1010.0
20260509233403 71 202 1.0 4.0 0.00 0.00 0.00 78 1009.9
20260509232857 71 185 0.0 5.0 0.00 0.00 0.00 78 1009.9
20260509232351 71 190 1.0 6.0 0.00 0.00 0.00 78 1009.9
20260509231845 71 215 1.0 6.0 0.00 0.00 0.00 78 1009.9
20260509231339 71 223 1.0 5.0 0.00 0.00 0.00 78 1009.9
20260509230833 71 227 2.0 9.0 0.00 0.00 0.00 77 1009.7
20260509230328 71 197 2.0 9.0 0.00 0.00 0.00 76 1009.8
20260509225821 71 225 1.0 7.0 0.00 0.00 0.00 76 1009.8
20260509225316 71 180 0.0 5.0 0.00 0.00 0.00 76 1009.7
20260509225040 72 198 0.0 3.0 0.00 0.00 0.00 75 1009.6
20260509224304 72 205 1.0 7.0 0.00 0.00 0.00 75 1009.6
20260509223757 72 180 1.0 7.0 0.00 0.00 0.00 75 1009.6
20260509223251 72 213 2.0 9.0 0.00 0.00 0.00 74 1009.7
20260509223016 72 244 2.0 9.0 0.00 0.00 0.00 75 1009.7
20260509222239 73 232 1.0 7.0 0.00 0.00 0.00 76 1009.6
20260509221733 73 211 1.0 7.0 0.00 0.00 0.00 75 1009.7
20260509221228 72 261 1.0 7.0 0.00 0.00 0.00 74 1009.5
20260509220721 73 220 0.0 4.0 0.00 0.00 0.00 74 1009.3
20260509220221 73 227 1.0 10.0 0.00 0.00 0.00 74 1009.3
20260509215721 73 217 2.0 10.0 0.00 0.00 0.00 74 1009.4
20260509215219 73 209 1.0 7.0 0.00 0.00 0.00 75 1009.3
20260509214719 73 222 1.0 6.0 0.00 0.00 0.00 74 1009.3
20260509214219 73 205 1.0 6.0 0.00 0.00 0.00 73 1009.2
20260509213715 73 265 1.0 10.0 0.00 0.00 0.00 72 1009.2
20260509213216 73 191 0.0 10.0 0.00 0.00 0.00 72 1009.1
20260509212716 73 219 1.0 5.0 0.00 0.00 0.00 72 1009.1
20260509212217 73 218 2.0 9.0 0.00 0.00 0.00 73 1009.1
20260509211716 73 221 1.0 9.0 0.00 0.00 0.00 73 1009.0
20260509211446 73 233 1.0 4.0 0.00 0.00 0.00 74 1009.0
20260509210716 73 194 1.0 5.0 0.00 0.00 0.00 74 1009.0
20260509210217 73 214 1.0 7.0 0.00 0.00 0.00 73 1009.1
20260509205715 72 234 1.0 7.0 0.00 0.00 0.00 72 1009.2
20260509205215 73 214 1.0 11.0 0.00 0.00 0.00 72 1009.2
20260509204946 73 234 2.0 11.0 0.00 0.00 0.00 72 1009.1
20260509204210 73 215 1.0 11.0 0.00 0.00 0.00 73 1009.1
20260509203711 73 255 1.0 6.0 0.00 0.00 0.00 73 1009.1
20260509203210 73 190 1.0 6.0 0.00 0.00 0.00 73 1009.2
20260509202710 73 213 2.0 6.0 0.00 0.00 0.00 72 1009.3
20260509202440 73 198 3.0 14.0 0.00 0.00 0.00 73 1009.1
20260509201709 72 173 3.0 14.0 0.00 0.00 0.00 72 1009.2
20260509201210 72 223 3.0 12.0 0.00 0.00 0.00 72 1009.4
20260509200710 72 225 2.0 10.0 0.00 0.00 0.00 73 1009.4
20260509200211 73 200 1.0 7.0 0.00 0.00 0.00 73 1009.3
20260509195938 73 197 2.0 8.0 0.00 0.00 0.00 72 1009.2
20260509195206 73 174 3.0 9.0 0.00 0.00 0.00 72 1009.4
20260509194939 72 250 4.0 9.0 0.00 0.00 0.00 72 1009.4
20260509194206 72 211 4.0 9.0 0.00 0.00 0.00 72 1009.3
20260509193705 72 202 2.0 9.0 0.00 0.00 0.00 71 1009.2
20260509193205 73 198 1.0 7.0 0.00 0.00 0.00 71 1009.3
20260509192707 73 244 2.0 12.0 0.00 0.00 0.00 71 1009.6
20260509192436 73 209 1.0 12.0 0.00 0.00 0.00 71 1009.5
20260509191939 73 227 1.0 8.0 0.00 0.00 0.00 71 1009.4
20260509191200 72 230 3.0 13.0 0.00 0.00 0.00 71 1009.5
20260509190654 72 190 4.0 13.0 0.00 0.00 0.00 71 1009.6
20260509190147 73 225 3.0 13.0 0.00 0.00 0.00 71 1009.7
20260509185643 73 234 2.0 13.0 0.00 0.00 0.00 71 1009.6
20260509185144 73 233 1.0 11.0 0.00 0.00 0.00 72 1009.6
20260509184643 73 176 2.0 11.0 0.00 0.00 0.00 72 1009.5
20260509184413 73 302 2.0 12.0 0.00 0.00 0.00 71 1009.4
20260509183642 73 232 3.0 12.0 0.00 0.00 0.00 73 1009.5
20260509183141 72 243 5.0 17.0 0.00 0.00 0.00 74 1009.8
20260509182642 72 168 5.0 17.0 0.00 0.00 0.00 72 1010.0
20260509182143 72 232 2.0 10.0 0.00 0.00 0.00 73 1010.0
20260509181643 72 264 0.0 6.0 0.00 0.00 0.00 76 1010.0
20260509181139 71 260 2.0 9.0 0.00 0.00 0.00 76 1010.0
20260509180640 71 191 3.0 10.0 0.00 0.00 0.00 76 1010.1
20260509180138 71 223 3.0 13.0 0.00 0.00 0.00 76 1010.0
20260509175636 71 173 3.0 13.0 0.00 0.00 0.00 73 1010.1
20260509175135 72 177 3.0 12.0 0.00 0.00 0.00 76 1010.1
20260509174637 71 202 3.0 11.0 0.00 0.00 0.00 78 1010.2
20260509174408 71 161 2.0 11.0 0.00 0.00 0.00 76 1010.2
20260509173636 71 265 4.0 14.0 0.00 0.00 0.00 77 1010.3
20260509173130 70 179 4.0 14.0 0.00 0.00 0.00 75 1010.4
20260509172624 70 246 3.0 10.0 0.00 0.00 0.00 77 1010.4
20260509172117 70 247 3.0 13.0 0.00 0.00 0.00 78 1010.5
20260509171612 70 211 5.0 16.0 0.00 0.00 0.00 76 1010.6
20260509171106 69 254 5.0 16.0 0.00 0.00 0.00 76 1010.7
20260509170600 70 229 2.0 12.0 0.00 0.00 0.00 78 1010.8
20260509170325 69 206 2.0 9.0 0.00 0.00 0.00 80 1010.9
20260509165548 68 224 3.0 16.0 0.00 0.00 0.00 79 1010.8
20260509165042 68 212 4.0 16.0 0.00 0.00 0.00 79 1010.9
20260509164536 68 248 4.0 14.0 0.00 0.00 0.00 79 1011.0
20260509163524 68 169 4.0 11.0 0.00 0.00 0.00 79 1011.0
20260509163018 68 240 5.0 16.0 0.00 0.00 0.00 81 1011.1
20260509162512 67 205 5.0 16.0 0.00 0.00 0.00 80 1011.1
20260509162005 67 155 4.0 15.0 0.00 0.00 0.00 80 1011.1
20260509161459 67 223 5.0 13.0 0.00 0.00 0.00 81 1011.2
20260509160954 67 206 6.0 16.0 0.00 0.00 0.00 81 1011.3
20260509160448 67 172 5.0 16.0 0.00 0.00 0.00 81 1011.3
20260509160215 66 212 5.0 13.0 0.00 0.00 0.00 81 1011.5
20260509155435 66 202 4.0 13.0 0.00 0.00 0.00 80 1011.5
20260509154930 66 235 3.0 9.0 0.00 0.00 0.00 81 1011.5
20260509154424 66 229 2.0 9.0 0.00 0.00 0.00 83 1011.7
20260509153918 66 215 1.0 8.0 0.00 0.00 0.00 85 1011.9
20260509153411 65 209 2.0 7.0 0.00 0.00 0.00 83 1011.8
20260509152907 65 237 4.0 10.0 0.00 0.00 0.00 85 1011.9
20260509152631 65 180 4.0 10.0 0.00 0.00 0.00 83 1011.8
20260509151854 64 196 3.0 9.0 0.00 0.00 0.00 86 1011.8
20260509151619 64 191 3.0 7.0 0.00 0.00 0.00 87 1011.7
20260509150842 64 192 2.0 7.0 0.00 0.00 0.00 86 1011.6
20260509150336 63 180 2.0 8.0 0.00 0.00 0.00 87 1011.8
20260509145830 63 216 1.0 8.0 0.00 0.00 0.00 86 1011.8
20260509145324 63 242 0.0 0.0 0.00 0.00 0.00 87 1011.8
20260509144819 63 252 0.0 0.0 0.00 0.00 0.00 87 1011.7
20260509144312 62 224 0.0 0.0 0.00 0.00 0.00 89 1011.6
20260509143810 62 224 0.0 0.0 0.00 0.00 0.00 91 1011.6
20260509142803 61 224 0.0 0.0 0.00 0.00 0.00 89 1011.6
20260509142306 61 224 0.0 0.0 0.00 0.00 0.00 89 1011.6
20260509141800 60 224 0.0 0.0 0.00 0.00 0.00 90 1011.6
20260509141259 60 224 0.0 0.0 0.00 0.00 0.00 91 1011.6
20260509140800 60 224 0.0 0.0 0.00 0.00 0.00 92 1011.6
20260509140256 60 210 0.0 0.0 0.00 0.00 0.00 92 1011.5
20260509135256 60 210 0.0 0.0 0.00 0.00 0.00 92 1011.6
20260509134754 59 210 0.0 0.0 0.00 0.00 0.00 92 1011.6
20260509134250 59 208 0.0 0.0 0.00 0.00 0.00 92 1011.6
20260509133748 59 212 0.0 0.0 0.00 0.00 0.00 92 1011.7
20260509133246 59 213 0.0 0.0 0.00 0.00 0.00 93 1011.6
20260509132746 58 213 0.0 0.0 0.00 0.00 0.00 94 1011.7
20260509132246 58 146 0.0 0.0 0.00 0.00 0.00 96 1011.6
20260509131744 57 147 0.0 0.0 0.00 0.00 0.00 97 1011.6
20260509131246 57 147 0.0 0.0 0.00 0.00 0.00 98 1011.5
20260509130742 57 147 0.0 0.0 0.00 0.00 0.00 99 1011.5
20260509130240 56 147 0.0 0.0 0.00 0.00 0.00 99 1011.5
20260509130012 56 147 0.0 0.0 0.00 0.00 0.00 99 1011.5
20260509125242 55 147 0.0 0.0 0.00 0.00 0.00 100 1011.6
20260509125012 55 147 0.0 0.0 0.00 0.00 0.00 100 1011.6
20260509124514 55 147 0.0 0.0 0.00 0.00 0.00 100 1011.9
20260509123740 54 147 0.0 0.0 0.00 0.00 0.00 100 1012.3
20260509123241 54 147 0.0 0.0 0.00 0.00 0.00 100 1012.5
20260509122742 54 147 0.0 0.0 0.00 0.00 0.00 100 1012.5
20260509122240 54 147 0.0 0.0 0.00 0.00 0.00 100 1012.5
20260509122014 53 147 0.0 0.0 0.00 0.00 0.00 100 1012.5
20260509121240 53 147 0.0 0.0 0.00 0.00 0.00 100 1012.6
20260509121012 52 147 0.0 0.0 0.00 0.00 0.00 100 1012.6
20260509120241 52 147 0.0 0.0 0.00 0.00 0.00 100 1012.6
20260509120011 52 147 0.0 0.0 0.00 0.00 0.00 100 1012.5
20260509115241 51 146 0.0 0.0 0.00 0.00 0.00 100 1012.6
20260509114741 51 146 0.0 0.0 0.00 0.00 0.00 100 1012.6
20260509114241 51 146 0.0 0.0 0.00 0.00 0.00 100 1012.6
20260509113742 51 146 0.0 0.0 0.00 0.00 0.00 100 1012.5
20260509113514 50 146 0.0 0.0 0.00 0.00 0.00 100 1012.4
20260509112736 50 146 0.0 0.0 0.00 0.00 0.00 100 1012.5
20260509112236 49 146 0.0 0.0 0.00 0.00 0.00 100 1012.3
20260509111723 49 146 0.0 0.0 0.00 0.00 0.00 100 1012.2
20260509111218 49 146 0.0 0.0 0.00 0.00 0.00 99 1012.1
20260509110711 49 146 0.0 0.0 0.00 0.00 0.00 99 1012.1
20260509110205 49 146 0.0 0.0 0.00 0.00 0.00 99 1011.9
20260509105700 49 146 0.0 0.0 0.00 0.00 0.00 100 1011.9
20260509105159 49 146 0.0 0.0 0.00 0.00 0.00 100 1011.9
20260509104653 49 146 0.0 0.0 0.00 0.00 0.00 100 1011.9
20260509104142 49 146 0.0 0.0 0.00 0.00 0.00 99 1011.9
20260509103635 49 146 0.0 0.0 0.00 0.00 0.00 99 1012.1
20260509103401 49 146 0.0 0.0 0.00 0.00 0.00 99 1012.1
20260509102624 49 146 0.0 0.0 0.00 0.00 0.00 100 1012.1
20260509102118 48 146 0.0 0.0 0.00 0.00 0.00 100 1012.1
20260509101612 48 146 0.0 0.0 0.00 0.00 0.00 100 1012.3
20260509101105 48 146 0.0 0.0 0.00 0.00 0.00 99 1012.3
20260509100600 48 146 0.0 0.0 0.00 0.00 0.00 99 1012.1
20260509100053 48 146 0.0 0.0 0.00 0.00 0.00 99 1011.9
20260509095549 48 146 0.0 0.0 0.00 0.00 0.00 100 1011.8
20260509095042 47 146 0.0 0.0 0.00 0.00 0.00 100 1011.6
20260509094536 47 146 0.0 0.0 0.00 0.00 0.00 99 1011.6
20260509094030 47 146 0.0 0.0 0.00 0.00 0.00 99 1011.4
20260509093524 47 146 0.0 0.0 0.00 0.00 0.00 99 1011.3
20260509093019 47 146 0.0 0.0 0.00 0.00 0.00 99 1011.5
20260509092512 46 146 0.0 0.0 0.00 0.00 0.00 99 1011.4
20260509092005 46 146 0.0 0.0 0.00 0.00 0.00 99 1011.6
20260509091732 46 146 0.0 0.0 0.00 0.00 0.00 99 1011.6
20260509090954 46 146 0.0 0.0 0.00 0.00 0.00 99 1011.6
20260509090447 46 146 0.0 0.0 0.00 0.00 0.00 98 1011.5
20260509085942 46 146 0.0 0.0 0.00 0.00 0.00 98 1011.5
20260509085436 46 146 0.0 0.0 0.00 0.00 0.00 98 1011.6
20260509084929 46 146 0.0 0.0 0.00 0.00 0.00 98 1011.5
20260509084655 47 146 0.0 0.0 0.00 0.00 0.00 98 1011.5
20260509083918 47 146 0.0 0.0 0.00 0.00 0.00 98 1011.5
20260509083411 47 146 0.0 0.0 0.00 0.00 0.00 98 1011.6
20260509082410 47 146 0.0 0.0 0.00 0.00 0.00 98 1011.4
20260509081903 47 146 0.0 0.0 0.00 0.00 0.00 98 1011.2
20260509081347 48 146 0.0 0.0 0.00 0.00 0.00 98 1011.2
20260509080841 48 146 0.0 0.0 0.00 0.00 0.00 99 1011.2
20260509080335 48 146 0.0 0.0 0.00 0.00 0.00 98 1011.4
20260509075829 48 146 0.0 0.0 0.00 0.00 0.00 99 1011.5
20260509075323 47 146 0.0 0.0 0.00 0.00 0.00 99 1011.4
20260509074817 47 146 0.0 0.0 0.00 0.00 0.00 98 1011.4
20260509074543 47 146 0.0 0.0 0.00 0.00 0.00 98 1011.5
20260509073806 47 146 0.0 0.0 0.00 0.00 0.00 98 1011.8
20260509073300 48 146 0.0 0.0 0.00 0.00 0.00 98 1011.8
20260509073024 48 146 0.0 0.0 0.00 0.00 0.00 98 1011.7
20260509072248 48 146 0.0 0.0 0.00 0.00 0.00 98 1011.8
20260509071742 48 146 0.0 0.0 0.00 0.00 0.00 98 1011.8
20260509071236 48 146 0.0 0.0 0.00 0.00 0.00 98 1011.8
20260509071000 49 146 0.0 0.0 0.00 0.00 0.00 98 1011.9
20260509070223 49 146 0.0 0.0 0.00 0.00 0.00 98 1011.8
20260509065717 49 146 0.0 0.0 0.00 0.00 0.00 98 1012.1
20260509065212 49 146 0.0 0.0 0.00 0.00 0.00 98 1012.2
20260509064706 49 146 0.0 0.0 0.00 0.00 0.00 98 1012.5
20260509064200 49 146 0.0 0.0 0.00 0.00 0.00 98 1012.6
20260509063654 49 146 0.0 0.0 0.00 0.00 0.00 98 1012.6
20260509063147 49 146 0.0 0.0 0.00 0.00 0.00 98 1012.7
20260509062641 49 146 0.0 0.0 0.00 0.00 0.00 98 1012.7
20260509062139 49 146 0.0 0.0 0.00 0.00 0.00 97 1012.8
20260509061636 49 146 0.0 0.0 0.00 0.00 0.00 98 1012.9
20260509060631 50 146 0.0 0.0 0.00 0.00 0.00 98 1013.1
20260509060129 50 146 0.0 0.0 0.00 0.00 0.00 98 1013.2
20260509055631 50 146 0.0 0.0 0.00 0.00 0.00 98 1013.1
20260509055129 50 146 0.0 0.0 0.00 0.00 0.00 98 1013.0
20260509054629 50 146 0.0 0.0 0.00 0.00 0.00 98 1013.0
20260509054130 50 146 0.0 0.0 0.00 0.00 0.00 98 1012.9
20260509053631 51 146 0.0 0.0 0.00 0.00 0.00 98 1013.0
20260509053130 51 146 0.0 0.0 0.00 0.00 0.00 98 1013.1
20260509052631 51 146 0.0 0.0 0.00 0.00 0.00 98 1013.2
20260509051627 51 146 0.0 0.0 0.00 0.00 0.00 97 1013.5
20260509051125 51 146 0.0 0.0 0.00 0.00 0.00 98 1013.5
20260509050626 51 146 0.0 0.0 0.00 0.00 0.00 98 1013.6
20260509050125 51 146 0.0 0.0 0.00 0.00 0.00 97 1013.6
20260509045626 51 146 0.0 0.0 0.00 0.00 0.00 97 1013.7
20260509045126 51 146 0.0 0.0 0.00 0.00 0.00 97 1013.8
20260509044625 51 146 0.0 0.0 0.00 0.00 0.00 97 1013.7
20260509044127 52 146 0.0 0.0 0.00 0.00 0.00 98 1013.8
20260509043854 52 146 0.0 0.0 0.00 0.00 0.00 97 1013.9
20260509043121 52 146 0.0 0.0 0.00 0.00 0.00 97 1013.8
20260509042622 52 146 0.0 0.0 0.00 0.00 0.00 97 1013.8
20260509042120 52 146 0.0 0.0 0.00 0.00 0.00 97 1013.7
20260509041620 52 146 0.0 0.0 0.00 0.00 0.00 97 1013.8
20260509041121 52 146 0.0 0.0 0.00 0.00 0.00 97 1014.0
20260509040619 53 146 0.0 0.0 0.00 0.00 0.00 97 1014.2
20260509040122 53 146 0.0 0.0 0.00 0.00 0.00 97 1014.1
20260509035851 53 146 0.0 0.0 0.00 0.00 0.00 97 1014.1
20260509035120 53 146 0.0 0.0 0.00 0.00 0.00 96 1014.2
20260509034618 53 146 0.0 0.0 0.00 0.00 0.00 97 1014.2
20260509034116 53 146 0.0 0.0 0.00 0.00 0.00 97 1014.2
20260509033616 53 146 0.0 0.0 0.00 0.00 0.00 97 1014.1
20260509033114 53 146 0.0 0.0 0.00 0.00 0.00 96 1014.1
20260509032615 54 146 0.0 0.0 0.00 0.00 0.00 96 1014.0
20260509032109 54 146 0.0 0.0 0.00 0.00 0.00 96 1014.1
20260509031603 54 146 0.0 0.0 0.00 0.00 0.00 96 1014.1
20260509031057 54 146 0.0 0.0 0.00 0.00 0.00 97 1014.1
20260509030550 54 146 0.0 0.0 0.00 0.00 0.00 96 1014.1
20260509030044 55 146 0.0 0.0 0.00 0.00 0.00 96 1014.1
20260509025811 55 146 0.0 0.0 0.00 0.00 0.00 96 1014.2
20260509025032 55 146 0.0 0.0 0.00 0.00 0.00 96 1014.1
20260509024528 55 146 0.0 0.0 0.00 0.00 0.00 96 1014.1
20260509024021 55 146 0.0 0.0 0.00 0.00 0.00 96 1014.2
20260509023515 55 146 0.0 0.0 0.00 0.00 0.00 95 1014.1
20260509023013 55 146 0.0 0.0 0.00 0.00 0.00 95 1014.1
20260509022503 55 146 0.0 0.0 0.00 0.00 0.00 95 1014.2
20260509021956 56 146 0.0 0.0 0.00 0.00 0.00 95 1014.2
20260509021451 56 146 0.0 0.0 0.00 0.00 0.00 95 1014.3
20260509020439 56 146 0.0 0.0 0.00 0.00 0.00 95 1014.3
20260509015933 56 146 0.0 0.0 0.00 0.00 0.00 94 1014.2
20260509015427 56 146 0.0 0.0 0.00 0.00 0.00 94 1014.3
20260509014921 56 146 0.0 0.0 0.00 0.00 0.00 94 1014.3
20260509014414 57 146 0.0 0.0 0.00 0.00 0.00 94 1014.1
20260509013908 57 146 0.0 0.0 0.00 0.00 0.00 94 1013.9
20260509013634 57 146 0.0 0.0 0.00 0.00 0.00 93 1013.9
20260509012857 57 146 0.0 0.0 0.00 0.00 0.00 93 1013.8
20260509012350 57 146 0.0 0.0 0.00 0.00 0.00 92 1013.9
20260509011844 58 146 0.0 0.0 0.00 0.00 0.00 92 1013.8
20260509011339 58 146 0.0 0.0 0.00 0.00 0.00 91 1013.8
20260509010833 58 146 0.0 0.0 0.00 0.00 0.00 91 1013.8
20260509010327 58 146 0.0 0.0 0.00 0.00 0.00 90 1013.7
20260509005821 58 146 0.0 0.0 0.00 0.00 0.00 90 1013.7
20260509005315 59 146 0.0 0.0 0.00 0.00 0.00 89 1013.7
20260509004809 59 146 0.0 0.0 0.00 0.00 0.00 88 1013.7